Weather History for KMKO - April, 2013

Change the Weather History Date:

Wednesday, April 17, 2013

  Actual Average (KTUL) Record (KTUL)
Temperature  
Mean Temperature 68 °F 61 °F  
Max Temperature 81 °F 72 °F 95 °F (2006)
Min Temperature 54 °F 50 °F 28 °F (1921)
Degree Days  
Heating Degree Days 0 6  
Month to date heating degree days 132  
Since 1 July heating degree days 3481  
Cooling Degree Days 2 2  
Month to date cooling degree days 23  
Year to date cooling degree days 35  
Growing Degree Days 18 (Base 50)    
Moisture  
Dew Point 63 °F    
Average Humidity 76    
Maximum Humidity 94    
Minimum Humidity 61    
Precipitation  
Precipitation 0.00 in 0.12 in 1.75 in (1953)
Month to date precipitation 1.88  
Year to date precipitation 8.68  
Sea Level Pressure  
Sea Level Pressure 29.78 in    
Wind  
Wind Speed 8 mph (SSE)    
Max Wind Speed 23 mph    
Max Gust Speed 31 mph    
Visibility 10 miles    
Events Rain , Thunderstorm    
T = Trace of Precipitation, MM = Missing Value Source: NWS Daily Summary

Daily Weather History Graph

Daily Weather History Graph

Search for Another Location

Airport or City:

Trip Planner

Search our weather history database for the weather conditions in past years. The results will help you decide how hot, cold, wet, or windy it might be!

Date:

Astronomy

Apr. 17, 2013 Rise Set
Actual Time 6:45 AM CDT 7:56 PM CDT
Civil Twilight 6:19 AM CDT 8:23 PM CDT
Nautical Twilight 5:47 AM CDT 8:54 PM CDT
Astronomical Twilight 5:15 AM CDT 9:27 PM CDT
Moon 12:04 PM CDT (4/17) 1:30 AM CDT (4/17)
Length of Visible Light 14h 03m
Length of Day
13h 10m
Waxing Crescent, 42% of the Moon is Illuminated
Apr 17
Waxing Crescent
Apr 18
First Quarter
Apr 25
Full
May 2
Last Quarter
May 9
New

Hourly Weather History & Observations

Time (CDT) Temp. Heat Index Dew Point Humidity Pressure Visibility Wind Dir Wind Speed Gust Speed Precip Events Conditions
12:53 AM 55.9 °F - 53.1 °F 90% 29.91 in 10.0 mi Calm Calm - N/A   Clear
1:53 AM 54.0 °F - 52.0 °F 93% 29.91 in 10.0 mi NW 3.5 mph - N/A   Partly Cloudy
2:53 AM 55.0 °F - 53.1 °F 93% 29.91 in 10.0 mi North 3.5 mph - N/A   Mostly Cloudy
3:53 AM 55.0 °F - 53.1 °F 93% 29.89 in 10.0 mi North 3.5 mph - N/A   Mostly Cloudy
4:42 AM 57.2 °F - 53.6 °F 88% 29.89 in 10.0 mi Calm Calm - N/A   Overcast
4:53 AM 57.0 °F - 54.0 °F 89% 29.89 in 10.0 mi Calm Calm - N/A   Overcast
5:53 AM 60.1 °F - 57.9 °F 93% 29.88 in 10.0 mi Calm Calm - N/A   Overcast
6:27 AM 62.6 °F - 60.8 °F 94% 29.88 in 10.0 mi SSE 3.5 mph - N/A   Overcast
6:53 AM 64.9 °F - 63.0 °F 93% 29.87 in 8.0 mi Calm Calm - N/A   Overcast
7:53 AM 71.1 °F - 68.0 °F 90% 29.87 in 6.0 mi SSE 15.0 mph - N/A   Overcast
9:53 AM 73.9 °F - 70.0 °F 87% 29.86 in 7.0 mi South 13.8 mph 21.9 mph N/A   Overcast
10:26 AM 75.2 °F - 69.8 °F 83% 29.87 in 10.0 mi South 13.8 mph 25.3 mph N/A   Overcast
10:36 AM 75.2 °F - 69.8 °F 83% 29.87 in 10.0 mi South 12.7 mph 21.9 mph N/A   Overcast
10:46 AM 75.2 °F - 69.8 °F 83% 29.87 in 10.0 mi South 10.4 mph 18.4 mph N/A   Overcast
10:53 AM 75.0 °F - 69.1 °F 82% 29.86 in 10.0 mi South 11.5 mph - N/A   Overcast
11:40 AM 75.2 °F - 68.0 °F 78% 29.86 in 10.0 mi South 13.8 mph - N/A   Overcast
11:53 AM 75.9 °F - 66.9 °F 74% 29.84 in 10.0 mi South 18.4 mph 24.2 mph N/A   Overcast
12:53 PM 81.0 °F 83.8 °F 68.0 °F 65% 29.81 in 10.0 mi South 19.6 mph 23.0 mph N/A   Mostly Cloudy
1:53 PM 80.1 °F 82.1 °F 66.0 °F 62% 29.78 in 10.0 mi South 19.6 mph - N/A   Mostly Cloudy
2:53 PM 80.1 °F 82.1 °F 66.0 °F 62% 29.75 in 10.0 mi South 17.3 mph 25.3 mph N/A   Partly Cloudy
3:53 PM 81.0 °F 83.3 °F 66.9 °F 62% 29.71 in 10.0 mi SSE 15.0 mph 20.7 mph N/A   Mostly Cloudy
4:53 PM 81.0 °F 83.3 °F 66.9 °F 62% 29.69 in 10.0 mi South 12.7 mph - N/A   Scattered Clouds
5:53 PM 80.1 °F 82.1 °F 66.0 °F 62% 29.66 in 10.0 mi SSE 12.7 mph - N/A   Scattered Clouds
6:53 PM 79.0 °F - 64.9 °F 62% 29.66 in 10.0 mi South 11.5 mph - N/A   Overcast
7:53 PM 78.1 °F - 64.0 °F 62% 29.65 in 10.0 mi SSE 9.2 mph - N/A   Scattered Clouds
8:53 PM 78.1 °F - 64.0 °F 62% 29.63 in 10.0 mi SSE 11.5 mph - N/A   Mostly Cloudy
9:53 PM 78.1 °F - 64.0 °F 62% 29.62 in 10.0 mi SSE 13.8 mph - 0.00 in Rain Light Rain
10:49 PM 78.8 °F - 64.4 °F 61% 29.60 in 10.0 mi SSE 19.6 mph 31.1 mph 0.00 in Thunderstorm Partly Cloudy
10:53 PM 78.1 °F - 64.0 °F 62% 29.59 in 10.0 mi SSE 23.0 mph 31.1 mph 0.00 in Thunderstorm Partly Cloudy
11:34 PM 75.2 °F - 64.4 °F 69% 29.60 in 10.0 mi SSE 15.0 mph 21.9 mph 0.00 in   Mostly Cloudy
11:53 PM 75.9 °F - 64.9 °F 69% 29.55 in 10.0 mi SSE 15.0 mph 24.2 mph 0.00 in   Mostly Cloudy